Regional Weather Roundup
Issued by NWS

Home | Current Version | Previous Version | Text Only | Print | Product List | Glossary On
Versions: 1 2 3 4 5 6 7 8 9 10 11 12 13 14 15 16 17 18 19 20 21 22 23 24 25 26 27 28 29 30 31 32 33 34 35 36 37 38 39 40 41 42 43 44 45 46 47 48 49 50
190
ASUS45 KREV 062010
RWRNV
NEVADA REGIONAL WEATHER ROUNDUP
NATIONAL WEATHER SERVICE RENO NV
1200 PM PST SAT FEB 06 2016

NOTE: "FAIR" INDICATES FEW OR NO CLOUDS BELOW 12,000 FEET WITH NO
SIGNIFICANT WEATHER AND/OR OBSTRUCTIONS TO VISIBILITY.

NVZ001-003-004-062100-
WESTERN NEVADA

CITY           SKY/WX    TMP DP  RH WIND       PRES   REMARKS
RENO           PTSUNNY   45  27  49 CALM      30.47F
CARSON CITY    FAIR      46  25  42 CALM      30.47F
MINDEN         FAIR      41  28  60 E3        30.47F
SLIDE MTN        N/A     37  14  38 CALM        N/A
PYRAMID LAKE     N/A     39 N/A N/A N5          N/A
FALLON         PTSUNNY   40  29  64 SW5       30.48F
LOVELOCK       SUNNY     44  32  62 CALM      30.48F
HAWTHORNE      SUNNY     39  30  70 CALM      30.48F
$$

NVZ002-CAZ072-073-062100-
NORTHERN AND CENTRAL SIERRA

CITY           SKY/WX    TMP DP  RH WIND       PRES   REMARKS
S. LAKE TAHOE  SUNNY     43  25  49 NE8       30.46F
TRUCKEE        SUNNY     39  27  60 CALM      30.47F
SQUAW VLY 8000   N/A     39  18  41 NW2         N/A
SUSANVILLE     SUNNY     43  32  65 CALM      30.50F
BLUE CANYON    SUNNY     53  12  19 W5        30.46F
MAMMOTH LAKES  FAIR      41  23  48 SE6       30.48F
BRIDGEPORT     FAIR      45  17  32 CALM      30.43F
$$

NVZ030-031-036-062100-
NORTHERN NEVADA

CITY           SKY/WX    TMP DP  RH WIND       PRES   REMARKS
ELKO           MOSUNNY   23  13  65 CALM      30.52F
WINNEMUCCA     SUNNY     40  25  55 VRB5      30.48F
WENDOVER       SUNNY     34  25  69 E6        30.52F
$$

NVZ035-037-062100-
CENTRAL NEVADA

CITY           SKY/WX    TMP DP  RH WIND       PRES   REMARKS
ELY            SUNNY     28  18  66 S16       30.44F
EUREKA           N/A      1  32 100 SW5       30.50R
$$

NVZ013-014-062100-
SOUTH CENTRAL NEVADA

CITY           SKY/WX    TMP DP  RH WIND       PRES   REMARKS
TONOPAH        SUNNY     29  19  66 CALM      30.47F
$$

NVZ017-020-022-062100-
SOUTHERN NEVADA

CITY           SKY/WX    TMP DP  RH WIND       PRES   REMARKS
LAS VEGAS      MOSUNNY   55  23  28 SE3       30.39F
N. LAS VEGAS   SUNNY     55  24  30 CALM      30.42F
NELLIS AFB     SUNNY     54  27  35 S2        30.42F
HENDERSON      SUNNY     54  24  31 N8        30.44F
MERCURY        SUNNY     54  22  28 N16       30.42F
$$




USA.gov is the U.S. government's official web portal to all federal, state and local government web resources and services.